Location: Chilton Park
(37.7711°N, 100.0276°W)
Time: 16:42:22
(UTC+00:00)

Cosmos 1898 Rocket - Pass Details

Date: 09 July 2022
Orbit: 753 x 783 km, 74.0° (Epoch: 18 August)

Event Time Altitude Azimuth Distance (km) Brightness Sun altitude
Rises 05:43:37 0° 2° (N) 3,212 7.8 -28.1°
Reaches altitude 10° 05:47:35 10° 32° (NNE) 2,284 6.4 -28.4°
Maximum altitude 05:49:39 12° 56° (NE) 2,129 6.0 -28.5°
Enters shadow 05:51:08 11° 73° (ENE) 2,210 5.9 -28.5°
